Location: *
(58.4167°N, 22.5000°E)
Time: 02:06:24
(UTC+00:00)

Cosmos 1818 - Pass Details

Date: 22 September 2019
Orbit: 775 x 799 km, 65.0° (Epoch: 17 October)

Event Time Altitude Azimuth Distance (km) Brightness Sun altitude
Exits shadow 22:39:49 52° 337° (NNW) 991 4.2 -31.3°
Maximum altitude 22:39:53 52° 340° (NNW) 990 4.2 -31.3°
Drops below altitude 10° 22:45:15 10° 57° (ENE) 2,382 6.5 -31.3°
Sets 22:47:45 0° 62° (ENE) 3,312 7.2 -31.2°
